Montgomery, AL

9:41 PM CDT on June 28, 2017 (GMT -0500)
Montgomery Regional

Weather History for KMGM - April, 2014

Change the Weather History Date:

Thursday, April 24, 2014

  Actual Average Record
Temperature  
Mean Temperature 72 °F 66 °F  
Max Temperature 87 °F 79 °F 91 °F (1925)
Min Temperature 56 °F 54 °F 36 °F (1986)
Degree Days  
Heating Degree Days 0 2  
Month to date heating degree days 59 89  
Since 1 July heating degree days 2297 2216  
Cooling Degree Days 7 3  
Month to date cooling degree days 48 50  
Year to date cooling degree days 58 79  
Growing Degree Days 21 (Base 50)    
Moisture  
Dew Point 54 °F    
Average Humidity 58    
Maximum Humidity 80    
Minimum Humidity 36    
Precipitation  
Precipitation 0.00 in 0.11 in 3.92 in (1908)
Month to date precipitation 7.94 3.36  
Year to date precipitation 21.13 19.24  
Snow  
Snow 0.00 in 0.00 in - ()
Month to date snowfall 0.0 0.0  
Since 1 July snowfall 0.5 0.4  
Snow Depth 0.00 in    
Sea Level Pressure  
Sea Level Pressure 29.93 in    
Wind  
Wind Speed 5 mph (SSE)    
Max Wind Speed 12 mph    
Max Gust Speed 16 mph    
Visibility 10 miles    
Events      
T = Trace of Precipitation, MM = Missing Value Source: NWS Daily Summary

Daily Weather History Graph

Daily Weather History Graph

Search for Another Location

Airport or City:

Trip Planner

Search our weather history database for the weather conditions in past years. The results will help you decide how hot, cold, wet, or windy it might be!

Date:

Astronomy

Apr. 24, 2014 Rise Set
Actual Time 6:06 AM CDT 7:21 PM CDT
Civil Twilight 5:40 AM CDT 7:47 PM CDT
Nautical Twilight 5:10 AM CDT 8:17 PM CDT
Astronomical Twilight 4:38 AM CDT 8:49 PM CDT
Moon 2:59 AM CDT (4/24) 2:52 PM CDT (4/24)
Length of Visible Light 14h 06m
Length of Day
13h 15m
Waning Crescent, 24% of the Moon is Illuminated
Apr 24
Waning Crescent
Apr 29
New
May 6
First Quarter
May 14
Full
May 21
Last Quarter

Hourly Weather History & Observations

Time (CDT) Temp. Heat Index Dew Point Humidity Pressure Visibility Wind Dir Wind Speed Gust Speed Precip Events Conditions
12:53 AM 59.0 °F - 52.0 °F 78% 29.93 in 10.0 mi Calm Calm - N/A   Clear
1:53 AM 59.0 °F - 51.1 °F 75% 29.92 in 10.0 mi Calm Calm - N/A   Clear
2:53 AM 59.0 °F - 48.9 °F 69% 29.93 in 10.0 mi Calm Calm - N/A   Clear
3:53 AM 57.0 °F - 51.1 °F 81% 29.95 in 10.0 mi Calm Calm - N/A   Mostly Cloudy
4:53 AM 57.0 °F - 51.1 °F 81% 29.96 in 10.0 mi Calm Calm - N/A   Overcast
5:53 AM 59.0 °F - 52.0 °F 78% 29.97 in 10.0 mi NNE 3.5 mph - N/A   Overcast
6:53 AM 60.1 °F - 51.1 °F 72% 29.98 in 10.0 mi ENE 4.6 mph - N/A   Overcast
7:53 AM 64.0 °F - 50.0 °F 60% 29.99 in 10.0 mi East 4.6 mph - N/A   Mostly Cloudy
8:53 AM 66.9 °F - 46.9 °F 49% 30.00 in 10.0 mi East 6.9 mph - N/A   Overcast
9:53 AM 71.1 °F - 48.9 °F 45% 30.01 in 10.0 mi SE 4.6 mph - N/A   Mostly Cloudy
10:53 AM 75.9 °F - 50.0 °F 40% 30.01 in 10.0 mi SE 4.6 mph - N/A   Scattered Clouds
11:53 AM 81.0 °F - 52.0 °F 36% 29.98 in 10.0 mi SSE 6.9 mph - N/A   Scattered Clouds
12:53 PM 82.9 °F 82.1 °F 55.9 °F 39% 29.95 in 10.0 mi SE 6.9 mph - N/A   Partly Cloudy
1:53 PM 84.9 °F 83.9 °F 57.0 °F 38% 29.94 in 10.0 mi SSE 5.8 mph - N/A   Partly Cloudy
2:53 PM 86.0 °F 84.9 °F 57.0 °F 37% 29.91 in 10.0 mi Variable 6.9 mph - N/A   Partly Cloudy
3:53 PM 86.0 °F 85.4 °F 59.0 °F 40% 29.89 in 10.0 mi SSE 9.2 mph - N/A   Scattered Clouds
4:53 PM 84.9 °F 84.4 °F 59.0 °F 41% 29.88 in 10.0 mi South 4.6 mph - N/A   Clear
5:53 PM 84.0 °F 83.3 °F 57.0 °F 40% 29.85 in 10.0 mi South 8.1 mph - N/A   Partly Cloudy
6:53 PM 80.1 °F 80.4 °F 57.0 °F 45% 29.85 in 10.0 mi South 4.6 mph - N/A   Clear
7:53 PM 75.0 °F - 57.9 °F 55% 29.86 in 9.0 mi SSE 4.6 mph - N/A   Clear
8:53 PM 75.0 °F - 59.0 °F 57% 29.87 in 10.0 mi South 8.1 mph - N/A   Clear
9:53 PM 73.0 °F - 57.9 °F 59% 29.90 in 10.0 mi SSW 4.6 mph - N/A   Clear
10:53 PM 70.0 °F - 57.9 °F 65% 29.90 in 10.0 mi South 5.8 mph - N/A   Clear
11:53 PM 68.0 °F - 59.0 °F 73% 29.90 in 10.0 mi SW 6.9 mph - N/A   Clear